This is the latest recevied weather packets stored in our database for station/object N0QV. If no packets are shown the sender has not sent any weather packets the latest 10 day(s).
| Time | Temp. | Humidity | Pressure | Rain* | Wind** | Luminosity | Snow |
|---|---|---|---|---|---|---|---|
| 1788356551 | 22.22° C | 81% | 1012.4 hPa | 0 mm | - | 77 W/m² | - |
| 1788356247 | 21.67° C | 82% | 1012.4 hPa | 0 mm | - | 74 W/m² | - |
| 1788355946 | 21.67° C | 84% | 1012.5 hPa | 0 mm | - | 70 W/m² | - |
| 1788355641 | 21.67° C | 84% | 1012.7 hPa | 0 mm | - | 65 W/m² | - |
| 1788355336 | 21.11° C | 85% | 1012.5 hPa | 0 mm | - | 60 W/m² | - |
| 1788355032 | 21.11° C | 85% | 1012.5 hPa | 0 mm | - | 58 W/m² | - |
| 1788354728 | 21.11° C | 86% | 1012.7 hPa | 0 mm | - | 46 W/m² | - |
| 1788354428 | 20.56° C | 87% | 1012.4 hPa | 0 mm | - | 49 W/m² | - |
| 1788354124 | 20.56° C | 87% | 1012.5 hPa | 0 mm | - | 51 W/m² | - |
| 1788353819 | 20.56° C | 88% | 1012.4 hPa | 0 mm | - | 44 W/m² | - |
| 1788353515 | 20° C | 89% | 1012.8 hPa | 0 mm | - | 39 W/m² | - |
| 1788353228 | 20° C | 90% | 1012.6 hPa | 0 mm | - | 28 W/m² | - |
| 1788352911 | 19.44° C | 90% | 1012.7 hPa | 0 mm | - | 25 W/m² | - |
| 1788352607 | 19.44° C | 91% | 1012.4 hPa | 0 mm | - | 24 W/m² | - |
| 1788352303 | 19.44° C | 91% | 1012.7 hPa | 0 mm | - | 21 W/m² | - |
| 1788352002 | 19.44° C | 92% | 1012.4 hPa | 0 mm | - | 17 W/m² | - |
| 1788351699 | 18.89° C | 92% | 1012.6 hPa | 0 mm | - | 15 W/m² | - |
| 1788351399 | 19.44° C | 92% | 1012.4 hPa | 0 mm | - | 14 W/m² | - |
| 1788351099 | 19.44° C | 92% | 1012.6 hPa | 0 mm | - | 12 W/m² | - |
| 1788350795 | 19.44° C | 93% | 1012.4 hPa | 0 mm | - | 10 W/m² | - |
| 1788350492 | 19.44° C | 93% | 1012.3 hPa | 0 mm | - | 8 W/m² | - |
| 1788350191 | 19.44° C | 93% | 1012.3 hPa | 0 mm | - | 5 W/m² | - |
| 1788349888 | 19.44° C | 93% | 1012.3 hPa | 0 mm | - | 4 W/m² | - |
| 1788349583 | 19.44° C | 92% | 1012.1 hPa | 0 mm | - | 2 W/m² | - |
| 1788349283 | 19.44° C | 93% | 1012.2 hPa | 0 mm | - | 0 W/m² | - |
* Rain latest hour (hover to see other rain measurements)
** Current wind speed in m/s (hover to see current wind gust speed)